Location: General Nathan Twining Observatory
(34.5931°N, 106.8201°W)
Time: 14:38:13
(UTC-06:00)

Daily predictions for brighter satellites

Satellite Brightness Start Highest point End
(mag) Time Altitude Azimuth Time Altitude Azimuth Time Altitude Azimuth
Cosmos 2346 Rocket 4.4 19:13:10 10° N 19:19:13 68° E 19:25:13 10° SSE
Cosmos 1371 Rocket 4.0 19:16:37 10° NNW 19:21:57 80° ENE 19:27:17 10° SSE
COSMO-SKYMED 1 2.9 19:19:11 10° N 19:23:31 72° WNW 19:27:49 10° SSW
Milstar 3 4.3 19:15:30 10° WSW 19:24:32 66° S 19:41:46 11° E
IDEFIX/ARIANE 42P 3.8 19:21:13 10° S 19:26:13 48° W 19:31:17 10° NNW
Cosmos 1758 4.3 19:23:50 10° SE 19:27:13 25° E 19:30:37 10° NNE
Cosmos 2333 Rocket 4.3 19:22:36 10° WSW 19:27:38 30° WNW 19:32:41 10° N
Cosmos 192 4.4 19:23:21 10° S 19:28:13 63° ESE 19:33:08 10° NNE
NOAA 12 4.3 19:25:58 10° SSE 19:31:00 49° ENE 19:36:05 10° N
ISS -1.7 19:28:58 10° S 19:31:17 18° SE 19:33:17 12° E
Aureole 2 Rocket 3.3 19:27:26 10° SSW 19:31:48 73° WNW 19:36:08 10° NNE
SAR-Lupe-1 4.1 19:31:17 10° SSE 19:34:45 57° ENE 19:38:16 10° N
Cosmos 1484 Rocket 3.1 19:31:10 10° S 19:34:57 70° W 19:38:50 10° NNW
OAO 3 Rocket 3.2 19:31:31 10° W 19:36:16 88° N 19:40:37 13° E
Cosmos 1624 Rocket 4.0 19:34:03 10° NNW 19:39:17 88° WSW 19:44:28 10° SSE
ASTRO E2 3.1 19:35:56 10° WSW 19:39:53 54° S 19:43:08 15° ESE
Cosmos 1766 Rocket 4.0 19:39:02 10° N 19:43:06 38° E 19:47:08 10° SSE
USA 215 3.2 19:38:51 10° NE 19:45:24 83° SE 19:51:56 10° SW
ALOS 3.5 19:42:34 11° ESE 19:45:49 22° ENE 19:49:26 10° NNE
SL-19 R/B 4.5 19:41:14 10° SSE 19:46:48 82° WSW 19:52:40 10° NNW
Meteor 1-29 3.5 19:45:03 10° NNE 19:48:18 36° E 19:51:33 10° SSE
Helios 1B rocket 2.5 19:46:18 10° NNE 19:50:20 53° E 19:54:21 10° S
OAO 1 Rocket 4.4 19:47:10 10° W 19:52:34 88° S 19:56:34 18° E
Cosmos 2034 Rocket 4.0 19:47:28 10° S 19:53:37 64° E 19:59:52 10° NNE
Cosmos 1076 Rocket 3.5 19:49:45 10° N 19:54:04 65° E 19:58:22 10° SSE
ATLAS 5 CENTAUR R/B 2.0 19:49:33 10° SW 19:54:15 73° WNW 19:59:19 10° NNE
Cosmos 1766 4.1 19:51:21 10° SSW 19:55:13 53° W 19:59:07 10° N
Cosmos 1464 Rocket 4.0 19:49:09 10° S 19:55:25 90° W 20:01:39 10° N
Cosmos-2242 3.1 19:52:25 10° S 19:56:38 54° E 20:00:55 10° NNE
CZ-4B DEB 4.3 19:57:06 20° ENE 19:57:06 20° ENE 19:59:11 10° NNE
SeaSat 1 3.5 19:55:03 10° NE 19:58:59 24° ESE 20:02:53 10° SSE
Atlas Centaur 2 3.7 19:51:20 10° W 19:59:29 48° SSW 20:06:05 14° SE
FREGAT/IRIS 2.8 19:58:59 10° S 20:02:03 74° W 20:05:08 10° NNW
Cosmos 1452 Rocket 3.5 20:03:31 10° N 20:08:45 64° ENE 20:13:49 11° SSE
CZ-2D R/B 4.3 20:09:16 27° ENE 20:09:16 27° ENE 20:12:32 10° NNE
SEDSat Delta rocket 4.1 20:03:27 10° W 20:10:05 69° S 20:14:09 25° ESE
SL-16 R/B 3.8 20:05:36 10° SW 20:10:48 36° WNW 20:16:02 10° N
ATLAS CENTAUR R/B 3.4 20:07:52 10° NW 20:11:17 27° WSW 20:14:29 10° S
Cosmos 1842 Rocket 4.0 20:08:14 10° SSE 20:12:11 36° E 20:16:09 10° NNE
Elektron 1 3.7 20:10:55 10° SSW 20:13:59 56° ESE 20:14:28 47° ENE
Cosmos 1544 3.0 20:11:02 10° S 20:14:43 68° E 20:18:27 10° NNE
Cosmos 1500 Rocket 4.4 20:12:49 10° NNE 20:16:35 31° ENE 20:16:35 31° ENE
Cosmos 1408 Rocket 3.6 20:12:29 10° N 20:16:50 76° W 20:21:07 10° S
SL-8 R/B 3.7 20:12:11 10° SW 20:16:58 85° NW 20:20:05 22° NE
Cosmos 1953 2.8 20:17:08 10° SSW 20:21:04 60° W 20:25:01 10° N
METEOR-M 4.3 20:16:15 10° S 20:21:34 72° WSW 20:26:56 10° NNW
H-2A R/B 3.3 20:25:26 41° ENE 20:25:26 41° ENE 20:28:44 10° N
Cosmos 1805 4.1 20:21:37 10° SSW 20:25:27 53° W 20:29:19 10° N
Gbstr 26 Del rocket 3.2 20:22:51 10° SSW 20:27:04 57° SE 20:28:30 40° ENE
Resurs 1-3 3.6 20:26:17 10° S 20:30:39 80° W 20:35:03 10° NNW
Cosmos 1420 Rocket 4.1 20:25:35 10° N 20:30:48 55° ENE 20:32:19 41° ESE
Abrixas 3.4 20:28:47 10° WSW 20:31:40 43° NNW 20:31:53 42° NNW
Resurs 01 Rocket 2.2 20:27:20 10° S 20:31:42 58° W 20:36:06 10° NNW
FENGYUN 3A 3.5 20:29:17 20° SSE 20:33:00 70° ENE 20:38:22 10° N
Cosmos 1346 4.5 20:31:47 10° N 20:33:27 30° N 20:33:27 30° N
ASTEX 1 3.2 20:34:39 10° N 20:39:34 83° E 20:44:27 10° S
Helios 1A 3.9 20:37:38 10° S 20:41:40 47° W 20:45:46 10° NNW
Spot 2 Rocket 4.4 20:38:06 10° S 20:42:56 47° W 20:47:48 10° NNW
Cosmos 1269 Rocket 4.4 20:39:20 10° SSW 20:44:33 64° WNW 20:49:48 10° N
Cosmos 1743 Rocket 3.6 20:40:51 10° N 20:45:18 80° W 20:46:46 41° S
Cosmos 1048 Rocket 4.2 20:40:57 10° SSW 20:46:15 74° WNW 20:51:31 10° NNE
Cosmos 1470 3.5 20:49:05 45° N 20:49:05 45° N 20:51:52 10° N
CENTAUR R/B 2.3 20:44:57 10° SSW 20:50:51 80° ESE 20:57:27 10° NNE
Cosmos 1943 3.0 20:48:09 10° SSW 20:53:47 78° ESE 20:59:25 10° NNE
GPS 2-04 Rocket1 3.8 20:52:02 10° WSW 20:54:14 36° WSW 20:54:14 36° WSW
Cosmos 2369 Rocket 2.8 20:51:42 10° N 20:56:07 40° NE 20:56:07 40° NE
Cosmos 1943 Rocket 4.1 20:56:26 10° NNE 20:58:11 16° NNE 20:58:11 16° NNE
Cosmos 1174 4.5 20:56:11 10° SSW 21:00:26 58° SW 21:00:26 58° SW
GP-B 4.4 20:58:43 10° N 21:01:02 31° N 21:01:02 31° N
BREEZE-M DEB (TANK) 4.4 20:57:26 10° WNW 21:06:31 31° N 21:07:42 28° NNE
ISS -0.7 21:04:37 10° WSW 21:06:00 20° W 21:06:00 20° W
BREEZE-M DEB (TANK) 4.3 20:41:04 10° NW 21:08:27 74° SW 21:10:47 47° SSE
Cosmos 1674 4.4 21:09:16 10° NNW 21:11:36 31° NW 21:11:36 31° NW
Cosmos 1092 Rocket 4.2 21:08:30 10° NNW 21:14:39 68° W 21:17:09 37° SSW
OAO 3 Rocket 4.1 21:15:04 10° W 21:18:26 46° W 21:18:26 46° W
ALOS 4.0 21:21:06 22° SW 21:23:04 30° W 21:27:10 10° NW
Cosmos 1634 Rocket 4.4 21:19:30 10° SSW 21:25:40 61° W 21:31:50 10° N
Cosmos 2026 Rocket 4.3 21:22:56 10° N 21:27:32 54° N 21:27:32 54° N
SeaSat 1 3.8 21:31:59 10° N 21:36:31 37° WNW 21:41:01 10° SW
Atlas Centaur 2 4.5 21:42:29 10° WSW 21:48:26 22° SSW 21:48:45 22° SSW
